Location: Mohawk View
(42.7837°N, 73.7885°W)
Time: 02:16:58
(UTC+00:00)

H-2A R/B - Pass Details

Date: 17 June 2021
Orbit: 574 x 597 km, 98.2° (Epoch: 02 August)

Event Time Altitude Azimuth Distance (km) Brightness Sun altitude
Rises 02:51:26 0° 14° (NNE) 2,795 7.6 -17.9°
Reaches altitude 10° 02:53:35 10° 16° (NNE) 1,891 6.7 -18.1°
Maximum altitude 02:57:41 79° 102° (ESE) 590 3.3 -18.4°
Enters shadow 02:59:08 39° 184° (S) 869 3.9 -18.6°
